This demonstration page uses our WeatherBlox Daily Observations layout. Learn more.

Left ArrowRight Arrow

Hourly Observations for September 29, 2019

Temp ( °F °C ) Dew Point ( °F °C ) Humidity (%) Winds ( mph kmh ) Pressure ( in mb ) Visibility ( mi km ) Precip ( " mm )
12:51 am 00:51 Clear 69 20.6 51 10.6 53 53 ESE 7 11 29.69 1005 10 16 0.00 0.00
1:51 am 01:51 Clear 70 21.1 52 11.1 53 53 ESE 8 13 29.68 1005 10 16 0.00 0.00
2:51 am 02:51 Clear 70 21.1 53 11.7 55 55 E 8 13 29.67 1005 10 16 0.00 0.00
3:51 am 03:51 Clear 70 21.1 55 12.8 59 59 E 9 15 29.67 1005 10 16 0.00 0.00
4:51 am 04:51 Clear 70 21.1 55 12.8 59 59 ESE 12 19 29.68 1005 10 16 0.00 0.00
5:51 am 05:51 Clear 70 21.1 55 12.8 59 59 ESE 12 19 29.70 1006 10 16 0.00 0.00
6:51 am 06:51 Sunny 70 21.1 55 12.8 59 59 ESE 12 19 29.73 1007 10 16 0.00 0.00
7:51 am 07:51 Sunny 74 23.3 54 12.2 50 50 E 9 15 29.74 1007 10 16 0.00 0.00
8:51 am 08:51 Sunny 78 25.6 53 11.7 42 42 SE 14 22 29.75 1008 10 16 0.00 0.00
9:51 am 09:51 Sunny 81 27.2 52 11.1 37 37 SE 9 15 29.75 1008 10 16 0.00 0.00
10:51 am 10:51 Sunny 85 29.4 46 7.8 26 26 SSE 12 19 29.72 1007 10 16 0.00 0.00
11:51 am 11:51 Sunny 88 31.1 43 6.1 21 21 SE 10 17 29.70 1006 10 16 0.00 0.00
12:51 pm 12:51 Sunny 89 31.7 40 4.4 18 18 VRB 3 6 29.67 1005 10 16 0.00 0.00
1:51 pm 13:51 Sunny 91 32.8 40 4.4 17 17 WSW 8 13 29.64 1004 10 16 0.00 0.00
2:51 pm 14:51 Sunny 89 31.7 38 3.3 16 16 Calm 29.63 1003 10 16 0.00 0.00
3:51 pm 15:51 Sunny 92 33.3 36 2.2 14 14 SSE 12 19 29.62 1003 10 16 0.00 0.00
4:51 pm 16:51 Sunny 91 32.8 37 2.8 15 15 VRB 7 11 29.61 1003 10 16 0.00 0.00
5:51 pm 17:51 Sunny 88 31.1 37 2.8 16 16 S 6 9 29.62 1003 10 16 0.00 0.00
6:51 pm 18:51 Clear 83 28.3 38 3.3 20 20 SW 3 6 29.64 1004 10 16 0.00 0.00
7:51 pm 19:51 Clear 79 26.1 40 4.4 25 25 NNW 9 15 29.66 1004 10 16 0.00 0.00
8:51 pm 20:51 Clear 79 26.1 40 4.4 25 25 NNW 10 17 29.67 1005 10 16 0.00 0.00
9:51 pm 21:51 Clear 77 25 41 5 28 28 N 9 15 29.68 1005 10 16 0.00 0.00
10:51 pm 22:51 Clear 76 24.4 41 5 29 29 NNW 10 17 29.67 1005 10 16 0.00 0.00
11:51 pm 23:51 Clear 74 23.3 41 5 31 31 Calm 29.69 1006 10 16 0.00 0.00

Powered by AerisWeather